TimeCST,TemperatureF,Dew PointF,Humidity,Sea Level PressureIn,VisibilityMPH,Wind Direction,Wind SpeedMPH,Gust SpeedMPH,PrecipitationIn,Events,Conditions,WindDirDegrees,DateUTC
12:15 AM,32.0,26.6,80,30.24,7.0,Calm,Calm,-,N/A,,Clear,0,2013-01-20 06:15:00
12:35 AM,33.8,26.6,75,30.25,8.0,North,-9999.0,-,N/A,,Clear,0,2013-01-20 06:35:00
1:15 AM,32.0,26.6,80,30.25,8.0,North,-9999.0,-,N/A,,Clear,0,2013-01-20 07:15:00
1:35 AM,32.0,26.6,80,30.26,5.0,North,-9999.0,-,N/A,,Haze,0,2013-01-20 07:35:00
1:55 AM,32.0,24.8,75,30.26,4.0,Calm,Calm,-,N/A,,Haze,0,2013-01-20 07:55:00
2:15 AM,32.0,26.6,80,30.26,9.0,Calm,Calm,-,N/A,,Clear,0,2013-01-20 08:15:00
2:35 AM,32.0,26.6,80,30.26,5.0,Calm,Calm,-,N/A,,Haze,0,2013-01-20 08:35:00
2:55 AM,32.0,24.8,75,30.26,5.0,North,-9999.0,-,N/A,,Haze,0,2013-01-20 08:55:00
3:15 AM,32.0,23.0,69,30.26,5.0,Calm,Calm,-,N/A,,Haze,0,2013-01-20 09:15:00
3:35 AM,30.2,23.0,75,30.26,3.0,Calm,Calm,-,N/A,,Haze,0,2013-01-20 09:35:00
3:55 AM,30.2,23.0,75,30.25,7.0,Calm,Calm,-,N/A,,Clear,0,2013-01-20 09:55:00
4:15 AM,30.2,23.0,75,30.25,5.0,Calm,Calm,-,N/A,,Haze,0,2013-01-20 10:15:00
4:35 AM,30.2,23.0,75,30.25,9.0,Calm,Calm,-,N/A,,Clear,0,2013-01-20 10:35:00
4:55 AM,30.2,23.0,75,30.25,5.0,North,-9999.0,-,N/A,,Haze,0,2013-01-20 10:55:00
5:15 AM,30.2,23.0,75,30.25,10.0,North,-9999.0,-,N/A,,Clear,0,2013-01-20 11:15:00
5:35 AM,30.2,23.0,75,30.25,5.0,North,-9999.0,-,N/A,,Haze,0,2013-01-20 11:35:00
6:15 AM,30.2,23.0,75,30.25,6.0,North,-9999.0,-,N/A,,Haze,0,2013-01-20 12:15:00
6:35 AM,30.2,23.0,75,30.25,3.0,North,-9999.0,-,N/A,,Haze,0,2013-01-20 12:35:00
6:55 AM,30.2,23.0,75,30.25,5.0,North,-9999.0,-,N/A,,Haze,0,2013-01-20 12:55:00
7:15 AM,28.4,21.2,74,30.25,5.0,North,-9999.0,-,N/A,,Haze,0,2013-01-20 13:15:00
7:35 AM,30.2,23.0,75,30.25,7.0,Calm,Calm,-,N/A,,Clear,0,2013-01-20 13:35:00
7:55 AM,32.0,26.6,80,30.26,8.0,Calm,Calm,-,N/A,,Clear,0,2013-01-20 13:55:00
8:15 AM,35.6,28.4,75,30.26,6.0,Calm,Calm,-,N/A,,Haze,0,2013-01-20 14:15:00
8:35 AM,37.4,32.0,81,30.26,8.0,Calm,Calm,-,N/A,,Clear,0,2013-01-20 14:35:00
8:55 AM,41.0,32.0,70,30.27,7.0,SSW,3.5,-,N/A,,Clear,200,2013-01-20 14:55:00
9:15 AM,44.6,33.8,66,30.27,9.0,Calm,Calm,-,N/A,,Clear,0,2013-01-20 15:15:00
9:35 AM,46.4,35.6,66,30.27,8.0,Calm,Calm,-,N/A,,Clear,0,2013-01-20 15:35:00
9:55 AM,50.0,35.6,58,30.28,9.0,NNW,3.5,-,N/A,,Clear,330,2013-01-20 15:55:00
10:15 AM,51.8,37.4,58,30.27,9.0,NNE,4.6,-,N/A,,Clear,20,2013-01-20 16:15:00
10:35 AM,53.6,37.4,54,30.27,10.0,North,4.6,-,N/A,,Clear,360,2013-01-20 16:35:00
10:55 AM,55.4,39.2,54,30.26,9.0,NNE,6.9,-,N/A,,Clear,20,2013-01-20 16:55:00
11:15 AM,57.2,39.2,51,30.26,9.0,NNE,5.8,-,N/A,,Clear,20,2013-01-20 17:15:00
11:35 AM,59.0,42.8,55,30.25,9.0,NNE,6.9,-,N/A,,Clear,20,2013-01-20 17:35:00
11:55 AM,60.8,42.8,52,30.23,9.0,North,5.8,-,N/A,,Clear,360,2013-01-20 17:55:00
12:15 PM,60.8,44.6,55,30.22,10.0,NE,3.5,-,N/A,,Clear,50,2013-01-20 18:15:00
12:35 PM,62.6,44.6,52,30.21,9.0,Calm,Calm,-,N/A,,Clear,0,2013-01-20 18:35:00
12:55 PM,62.6,46.4,55,30.20,9.0,WSW,3.5,-,N/A,,Clear,240,2013-01-20 18:55:00
1:15 PM,64.4,46.4,52,30.19,9.0,SW,3.5,-,N/A,,Clear,220,2013-01-20 19:15:00
1:35 PM,62.6,46.4,55,30.19,9.0,Calm,Calm,-,N/A,,Clear,0,2013-01-20 19:35:00
1:55 PM,64.4,48.2,56,30.18,9.0,Calm,Calm,-,N/A,,Clear,0,2013-01-20 19:55:00
2:15 PM,64.4,48.2,56,30.18,10.0,WSW,3.5,-,N/A,,Clear,240,2013-01-20 20:15:00
2:35 PM,64.4,48.2,56,30.17,9.0,Calm,Calm,-,N/A,,Clear,0,2013-01-20 20:35:00
2:55 PM,64.4,48.2,56,30.17,9.0,WSW,4.6,-,N/A,,Clear,250,2013-01-20 20:55:00
3:15 PM,64.4,48.2,56,30.16,9.0,Calm,Calm,-,N/A,,Clear,0,2013-01-20 21:15:00
3:35 PM,64.4,48.2,56,30.16,10.0,SW,3.5,-,N/A,,Clear,230,2013-01-20 21:35:00
3:55 PM,64.4,46.4,52,30.16,9.0,Calm,Calm,-,N/A,,Clear,0,2013-01-20 21:55:00
4:15 PM,64.4,46.4,52,30.16,9.0,NW,3.5,-,N/A,,Clear,320,2013-01-20 22:15:00
4:35 PM,62.6,46.4,55,30.16,10.0,Calm,Calm,-,N/A,,Clear,0,2013-01-20 22:35:00
4:55 PM,60.8,44.6,55,30.16,10.0,Calm,Calm,-,N/A,,Clear,0,2013-01-20 22:55:00
5:15 PM,57.2,39.2,51,30.16,9.0,Calm,Calm,-,N/A,,Clear,0,2013-01-20 23:15:00
5:35 PM,51.8,35.6,54,30.16,9.0,Calm,Calm,-,N/A,,Clear,0,2013-01-20 23:35:00
5:55 PM,48.2,33.8,58,30.16,10.0,Calm,Calm,-,N/A,,Clear,0,2013-01-20 23:55:00
6:15 PM,46.4,33.8,62,30.16,10.0,Calm,Calm,-,N/A,,Clear,0,2013-01-21 00:15:00
6:35 PM,44.6,33.8,66,30.16,9.0,Calm,Calm,-,N/A,,Clear,0,2013-01-21 00:35:00
6:55 PM,42.8,32.0,66,30.16,10.0,North,-9999.0,-,N/A,,Clear,0,2013-01-21 00:55:00
7:15 PM,42.8,32.0,66,30.16,10.0,North,-9999.0,-,N/A,,Clear,0,2013-01-21 01:15:00
7:35 PM,41.0,32.0,70,30.16,9.0,Calm,Calm,-,N/A,,Clear,0,2013-01-21 01:35:00
7:55 PM,39.2,32.0,75,30.16,9.0,Calm,Calm,-,N/A,,Clear,0,2013-01-21 01:55:00
8:15 PM,39.2,32.0,75,30.17,9.0,Calm,Calm,-,N/A,,Clear,0,2013-01-21 02:15:00
8:35 PM,37.4,32.0,81,30.17,9.0,North,-9999.0,-,N/A,,Clear,0,2013-01-21 02:35:00
8:55 PM,37.4,30.2,75,30.17,9.0,North,-9999.0,-,N/A,,Clear,0,2013-01-21 02:55:00
9:15 PM,37.4,30.2,75,30.17,8.0,Calm,Calm,-,N/A,,Clear,0,2013-01-21 03:15:00
9:55 PM,35.6,30.2,81,30.17,6.0,Calm,Calm,-,N/A,,Haze,0,2013-01-21 03:55:00
10:15 PM,33.8,28.4,81,30.17,5.0,Calm,Calm,-,N/A,,Haze,0,2013-01-21 04:15:00
10:35 PM,33.8,28.4,81,30.17,5.0,Calm,Calm,-,N/A,,Haze,0,2013-01-21 04:35:00
10:55 PM,33.8,28.4,81,30.17,4.0,North,-9999.0,-,N/A,,Haze,0,2013-01-21 04:55:00
11:15 PM,33.8,28.4,81,30.16,1.0,North,-9999.0,-,N/A,,Haze,0,2013-01-21 05:15:00
11:35 PM,33.8,28.4,81,30.16,3.0,North,-9999.0,-,N/A,,Haze,0,2013-01-21 05:35:00
11:55 PM,33.8,28.4,81,30.16,4.0,Calm,Calm,-,N/A,,Haze,0,2013-01-21 05:55:00